Location: �quirre
(50.4736°N, 2.2351°E)
Time: 06:05:55
(UTC+00:00)

Cosmos 1538 Rocket - Pass Details

Date: 07 August 2020
Orbit: 752 x 792 km, 74.0° (Epoch: 23 September)

Event Time Altitude Azimuth Distance (km) Brightness Sun altitude
Rises 01:26:29 0° 334° (NNW) 3,217 7.8 -20.4°
Reaches altitude 10° 01:28:52 10° 332° (NNW) 2,287 6.9 -20.2°
Maximum altitude 01:34:00 68° 250° (WSW) 812 3.9 -19.9°
Enters shadow 01:35:59 37° 179° (S) 1,156 4.5 -19.7°
